Portada
METAR-TAF:

METAR-TAF

Aeropuertos :

Arauca, Colombia

Aeropuerto Santiago Pérez Quiroz

latitud: 07-04N, longitud: 070-44W, altitud: 128 m

Observación

El informe se hizo hace 1 hora y 28 minutos, a las 21:00 UTC
Viento 6 kt del este-noreste
Temperatura 33°C
Humedad 49%
Presión 1009 hPa
Visibilidad 10 km o más
Nubes dispersas a una altura de 1500 ft

METAR: SKUC 212100Z 07006KT 9999 SCT015 33/21 A2979

Hora: 17:28 (22:28 UTC)


TAF: falta

Observaciones y pronósticos meteorológicos de más de 4000 aeropuertos (mensajes METAR y TAF).

Los puntos amarillos y rojos representan las estaciones disponibles.

Ponga el ratón en el punto deseado para ver el nombre de la estación.

Haga clic para ver las observaciones y los pronósticos meteorológicos.

Para cambiar el mapa : haga clic en los botones verdes con una cruz de color negro para hacer un zoom, en el botón verde con un guión para alejar o en las flechas verdes para mapas adyacentes.


METAR-TAF: